Location: Baix
(44.7118°N, 4.7648°E)
Time: 19:17:41
(UTC+00:00)

Cosmos 1975 Rocket - Pass Details

Date: 07 August 2020
Orbit: 603 x 635 km, 82.5° (Epoch: 24 September)

Event Time Altitude Azimuth Distance (km) Brightness Sun altitude
Rises 00:40:20 0° 345° (NNW) 2,943 7.4 -27.7°
Reaches altitude 10° 00:42:39 10° 339° (NNW) 2,030 6.3 -27.6°
Enters shadow 00:45:36 34° 311° (NW) 1,042 4.3 -27.5°
